Weather Roundup
Issued by NWS

Home | Current Version | Previous Version | Text Only | Print | Product List | Glossary On
Versions: 1 2 3 4 5 6 7 8 9 10 11 12 13 14 15 16 17 18 19 20 21 22 23 24 25 26 27 28 29 30 31 32 33 34 35 36 37 38 39 40 41 42 43 44 45 46 47 48 49 50
119
NZUS93 KARX 231110
HRRWXR

CURRENT HOURLY OBSERVATIONS ACROSS
MUCH OF THE UPPER MISSISSIPPI VALLEY
NATIONAL WEATHER SERVICE LA CROSSE WI
600 AM CDT FRI JUN 23 2017


...SOUTHEAST MINNESOTA...


CITY           SKY/WX    TMP DP  RH WIND       PRES   REMARKS
ROCHESTER      CLEAR     57  54  89 SW8       29.76R
ROCHESTER/MAYO FAIR      59  56  90 S5        29.75R
WINONA         CLEAR     59  59 100 CALM      29.74R
AUSTIN         CLEAR     55  54  94 SW3       29.77R
ALBERT LEA     CLEAR     57  55  94 SW3       29.78R
DODGE CENTER   CLEAR     55  54  94 SW7       29.76R
PRESTON        CLEAR     57  54  90 W3        29.77S
OWATONNA       CLEAR     55  54  94 S5        29.76R
FARIBAULT      PTCLDY    61  55  82 W7        29.75R
$$

...ELSEWHERE IN MINNESOTA...


CITY           SKY/WX    TMP DP  RH WIND       PRES   REMARKS
MINNEAPOLIS    CLEAR     59  53  80 W7        29.72R
INTNL FALLS    MOCLDY    53  47  79 W7        29.60R
DULUTH         PTCLDY    51  46  83 W8        29.65R
RED WING       CLEAR     55  54  94 CALM      29.70S FOG
REDWOOD FALLS  CLEAR     57  48  72 NW14      29.79R
MANKATO        CLEAR     59  52  77 W12       29.78R
WORTHINGTON    CLEAR     56  48  74 NW13      29.86R
FAIRMONT       CLEAR     60  51  72 NW18G24   29.81R
$$

...SOUTHWEST WISCONSIN...


CITY           SKY/WX    TMP DP  RH WIND       PRES   REMARKS
LA CROSSE      FOG       61  61 100 CALM      29.73R VSB 1/4
PRAIRIE DU CHI MOCLDY    63  61  96 E3        29.74S FOG
BOSCOBEL       MOCLDY    60  59  96 W3        29.74R FOG
LONE ROCK      CLOUDY    60  59  96 NW3       29.73S FOG
PLATTEVILLE    MOCLDY    63  62  97 NW3       29.75R
FORT MC COY    FOG       55  55 100 CALM      29.74R VSB<1/4
CAMP DOUGLAS   FOG       55  55 100 CALM      29.73R VSB 1/2
MAUSTON-NEW LI FOG       59  59 100 CALM      29.73R VSB<1/4
VIROQUA        CLOUDY    59  59 100 W3        29.75S VSB<1/4
WIS DELLS      PTCLDY    62  60  96 NW5       29.73R FOG
$$

...ELSEWHERE IN WISCONSIN...


CITY           SKY/WX    TMP DP  RH WIND       PRES   REMARKS
MILWAUKEE      CLOUDY    65  64  97 N3        29.68S
MADISON        CLOUDY    61  60  97 NW5       29.70F
GREEN BAY      MOCLDY    64  64 100 CALM      29.68R
EAU CLAIRE     CLEAR     57  56  96 S5        29.69S
BLACK RVR FLS  FOG       56  56 100 S3        29.73R VSB<1/4
MEDFORD        CLEAR     56  55  96 SW5       29.71R
WAUSAU         CLEAR     57  57 100 CALM      29.69R FOG
WIS RAPIDS     MOCLDY    61  60  97 W3        29.73R
MARSHFIELD     CLOUDY    57  55  93 W6        29.71R FOG
RICE LAKE      FOG       53  52  97 CALM      29.71S VSB 1
$$

...NORTHEAST IOWA...


CITY           SKY/WX    TMP DP  RH WIND       PRES   REMARKS
WATERLOO       CLOUDY    63  62  97 W5        29.76S FOG
DUBUQUE        CLOUDY    63  61  93 N8        29.75R
DECORAH        FOG       63  63 100 NW5       29.75S VSB 1
MASON CITY     CLEAR     56  54  93 W5        29.81R
CHARLES CITY   CLEAR     61  61 100 CALM      29.79R FOG
OELWEIN        FOG       63  63 100 CALM      29.77S VSB 1
$$

...ELSEWHERE IN IOWA...


CITY           SKY/WX    TMP DP  RH WIND       PRES   REMARKS
DES MOINES     CLOUDY    65  62  90 N7        29.79S
IOWA CITY      CLOUDY    70  63  78 N10       29.74R
FORT DODGE     CLEAR     57  52  82 W3        29.83R
MARSHALLTOWN   PTCLDY    63  62  97 NW8       29.77F FOG
CEDAR RAPIDS   CLOUDY    65  65 100 N7        29.74S
$$

...NORTHERN ILLINOIS...


CITY           SKY/WX    TMP DP  RH WIND       PRES   REMARKS
CHICAGO-OHARE  TSTM      68  65  90 NW13      29.66R
CHICAGO-MIDWAY TSTM      69  67  93 W9        29.67R FOG
MOLINE         MOCLDY    69  65  86 NE9       29.70R
ROCKFORD       MOCLDY    67  65  93 N14       29.68F
PEORIA         CLOUDY    75  74  96 SW8       29.67R
$$

NOTE: "FAIR" INDICATES FEW OR NO CLOUDS BELOW 12,000 FEET WITH NO
SIGNIFICANT WEATHER AND/OR OBSTRUCTIONS TO VISIBILITY. WIND
SPEEDS ARE IN MILES-PER-HOUR.




USA.gov is the U.S. government's official web portal to all federal, state and local government web resources and services.